Regional Weather Roundup
Issued by NWS

Home | Current Version | Previous Version | Graphics & Text | Print | Product List | Glossary On
Versions: 1 2 3 4 5 6 7 8 9 10 11 12 13 14 15 16 17 18 19 20 21 22 23 24 25 26 27 28 29 30 31 32 33 34 35 36 37 38 39 40 41 42 43 44 45 46 47 48 49 50
000
ASUS45 KABQ 210901
RWRNM
WEATHER ROUNDUP FOR NEW MEXICO
NATIONAL WEATHER SERVICE ALBUQUERQUE NM
300 AM MDT TUE OCT 21 2014

NOTE: "FAIR" MEANS FEW OR NO CLOUDS BELOW 12,000 FEET AGL WITH NO
       SIGNIFICANT WEATHER OR OBSTRUCTIONS TO VISION.

      THIS PRODUCT IS RELEASED AS TWO VERSIONS.  ONE VERSION NEAR
      THE TOP OF THE HOUR CONTAINING PRELIMINARY DATA FROM ALBUQUERQUE
      AND OTHER STATIONS.  A FINAL VERSION WITH ADDITIONAL DATA IS
      ISSUED ABOUT 10 MINUTES AFTER THE HOUR.

NMZ501-503-504-510>518-211000-
NORTHWEST PLATEAU/NORTHCENTRAL MOUNTAINS

CITY           SKY/WX    TMP DP  RH WIND       PRES   REMARKS
FARMINGTON     CLOUDY    54  43  66 E7        30.14S
LOS ALAMOS     MOCLDY    49  43  80 SW7       30.24F
SANTA FE       MOCLDY    48  45  89 SW7       30.21S
TAOS           CLEAR     39  34  81 E5        30.25F
ANGEL FIRE     FAIR      30  28  91 CALM      30.31S

$$
NMZ402-403-502-505>509-211000-
WESTCENTRAL MOUNTAINS/SOUTHWEST MOUNTAINS

CITY           SKY/WX    TMP DP  RH WIND       PRES   REMARKS
GALLUP         CLEAR     40  38  93 CALM      30.18F
SILVER CITY    MOCLDY    54  50  87 SE3       30.15S

$$
NMZ407-409-411-412-211000-
SOUTHERN DESERTS

CITY           SKY/WX    TMP DP  RH WIND       PRES   REMARKS
LORDSBURG      FAIR      52  50  93 MISG      30.07F
DEMING         LGT RAIN  56  54  93 NE5       30.09F
HOLLOMAN AFB   PTCLDY    55  55 100 E3        30.08S
T OR C         MOCLDY    55  51  86 NW6       30.10F

$$
NMZ519>523-211000-
CENTRAL VALLEYS/CENTRAL HIGHLANDS

CITY           SKY/WX    TMP DP  RH WIND       PRES   REMARKS
ALBUQUERQUE    PTCLDY    54  47  77 NW5       30.16F
DOUBLE EAGLE   PTCLDY    46  44  93 N6        30.18F
MORIARTY ARPT  CLOUDY    46  44  93 N5        30.21F
CLINES CORNERS PTCLDY    44  41  89 SW7       30.21F
BELEN          NOT AVBL
SOCORRO        FAIR      51  48  92 CALM      30.13S

$$
NMZ524>526-539-540-211000-
SOUTHCENTRAL MOUNTAINS

CITY           SKY/WX    TMP DP  RH WIND       PRES   REMARKS
RUIDOSO        NOT AVBL

$$
NMZ527>531-211000-
NORTHEAST HIGHLANDS/NORTHEAST PLAINS

CITY           SKY/WX    TMP DP  RH WIND       PRES   REMARKS
LAS VEGAS      MOCLDY    44  41  89 NE5       30.22F
RATON          CLEAR     42  37  82 NE5       30.19F
CLAYTON        CLEAR     51  43  74 W6        30.13F

$$
NMZ532>537-211000-
EASTCENTRAL PLAINS

CITY           SKY/WX    TMP DP  RH WIND       PRES   REMARKS
TUCUMCARI      PTCLDY    55  47  74 W7        30.11F
CANNON AFB     CLEAR     53  51  91 NW5       30.13F
CLOVIS AIRPORT NOT AVBL

$$
NMZ028-029-538-211000-
SOUTHEAST PLAINS

CITY           SKY/WX    TMP DP  RH WIND       PRES   REMARKS
ROSWELL        LGT RAIN  58  56  93 CALM      30.11F
CARLSBAD       CLOUDY    61  57  87 NW7       30.08F
HOBBS          MOCLDY    55  55 100 CALM      30.12S


$$



USA.gov is the U.S. government's official web portal to all federal, state and local government web resources and services.